User: anonymous   Login
Location: Unspecified
(0.0000°N, 0.0000°E)
Time: 19:43:47
(UTC+00:00)
Language:

NADEZHDA 7 - Orbit

View from above orbital plane
View from above orbital plane
View from above satellite
View from above satellite

Ground track
Ground track

The orbit data is extracted from the following two-line orbital elements,

1 27534U 02046A   19341.45926921  .00000022  00000-0  75699-5 0  9994
2 27534  82.9345 291.8621 0037513 115.5113  23.9138 13.72716253861603
Epoch (UTC): 07 December 2019 11:01:20
Eccentricity: 0.0037513
inclination: 82.9345°
perigee height: 962 km
apogee height: 1017 km
right ascension of ascending node: 291.8621°
argument of perigee: 115.5113°
revolutions per day: 13.72716253
mean anomaly at epoch: 23.9138°
orbit number at epoch: 86160

The dashed part of the orbit path shows where the satellite is in the earth's shadow,  

DLR